GW0285 Weather Reports


time (UTC)temp
C
wind
direction
speed
KPH
gust
KPH
rain 1hr
cm
rain 24hr
cm
rain mn
cm
humidity
%
barometer
mb
20260506050903 8 330 1.6 4.8 0.00 0.00 0.00 85 1012.3
20260506044524 8 343 1.6 14.5 0.00 0.00 0.00 84 1012.2
20260506043603 8 351 1.6 11.3 0.00 0.00 0.00 85 1012.3
20260506042703 8 336 3.2 14.5 0.00 0.00 0.00 85 1012.3
20260506041803 8 310 0.0 1.6 0.00 0.00 0.00 85 1012.2
20260506040903 8 2 1.6 8.0 0.00 0.00 0.00 85 1012.0
20260506040003 8 349 1.6 6.4 0.00 0.00 0.00 85 1012.3
20260506035403 8 323 0.0 8.0 0.00 0.00 0.00 85 1012.2
20260506034524 9 0 0.0 0.0 0.00 0.00 0.00 84 1012.1
20260506033603 9 325 0.0 8.0 0.00 0.00 0.00 83 1012.0
20260506032724 9 326 1.6 4.8 0.00 0.00 0.00 82 1011.9
20260506031803 9 333 1.6 16.1 0.00 0.00 0.00 81 1011.9
20260506030903 9 317 0.0 4.8 0.00 0.00 0.00 81 1012.3
20260506030003 9 333 0.0 8.0 0.00 0.00 0.00 81 1012.1
20260506025403 9 0 0.0 0.0 0.00 0.00 0.00 81 1012.1
20260506024503 10 337 1.6 14.5 0.00 0.00 0.00 80 1012.0
20260506023603 10 0 0.0 0.0 0.00 0.00 0.00 80 1012.2
20260506022703 10 330 1.6 11.3 0.00 0.00 0.00 80 1012.0
20260506021824 10 328 1.6 11.3 0.00 0.00 0.00 80 1012.0
20260506020903 10 326 1.6 4.8 0.00 0.00 0.00 80 1012.0
20260506020003 10 332 1.6 11.3 0.00 0.00 0.00 80 1011.9
20260506015403 10 20 0.0 6.4 0.00 0.00 0.00 81 1011.9
20260506014524 10 30 0.0 8.0 0.00 0.00 0.00 81 1012.2
20260506013603 10 0 0.0 0.0 0.00 0.00 0.00 82 1012.2
20260506012703 10 319 0.0 4.8 0.00 0.00 0.00 81 1012.0
20260506011803 10 339 0.0 8.0 0.00 0.00 0.00 81 1012.1
20260506010903 10 329 1.6 8.0 0.00 0.00 0.00 80 1012.3
20260506010003 10 332 1.6 11.3 0.00 0.00 0.00 80 1012.2
20260506005403 10 338 1.6 11.3 0.00 0.00 0.00 79 1012.1
20260506004524 10 0 0.0 0.0 0.00 0.00 0.00 78 1012.1
20260506003603 11 346 1.6 11.3 0.00 0.00 0.00 78 1012.3
20260506002703 11 354 1.6 9.7 0.00 0.00 0.00 77 1012.2
20260506001824 11 359 3.2 24.1 0.00 0.00 0.00 75 1012.1
20260506000925 11 327 0.0 8.0 0.00 0.00 0.00 74 1012.2
20260506000004 11 30 1.6 16.1 0.00 0.00 0.00 74 1012.1
20260505235403 11 18 1.6 14.5 0.00 0.00 0.00 73 1012.3
20260505234503 11 353 1.6 11.3 0.00 0.00 0.00 73 1012.1
20260505233624 11 4 0.0 3.2 0.00 0.00 0.00 72 1012.2
20260505232703 11 339 0.0 6.4 0.00 0.00 0.00 72 1012.2
20260505231803 11 335 1.6 14.5 0.00 0.00 0.00 72 1012.2
20260505230905 11 348 1.6 14.5 0.00 0.00 0.00 73 1012.1
20260505230004 11 352 0.0 14.5 0.00 0.00 0.00 75 1012.2
20260505225403 12 336 1.6 11.3 0.00 0.00 0.00 77 1012.2
20260505224503 12 320 0.0 4.8 0.00 0.00 0.00 77 1012.2
20260505223603 12 335 0.0 4.8 0.00 0.00 0.00 77 1012.1
20260505222703 12 19 0.0 3.2 0.00 0.00 0.00 76 1012.1
20260505221824 12 341 0.0 8.0 0.00 0.00 0.00 76 1012.1
20260505220903 12 15 0.0 11.3 0.00 0.00 0.00 76 1011.9
20260505220003 12 326 0.0 3.2 0.00 0.00 0.00 77 1011.9
20260505215403 12 50 0.0 8.0 0.00 0.00 0.00 77 1012.0
20260505214503 12 355 0.0 8.0 0.00 0.00 0.00 76 1011.8
20260505213603 12 315 0.0 3.2 0.00 0.00 0.00 76 1012.1
20260505212724 12 0 0.0 0.0 0.00 0.00 0.00 76 1012.1
20260505211803 12 323 0.0 4.8 0.00 0.00 0.00 76 1011.8
20260505210903 12 0 0.0 0.0 0.00 0.00 0.00 76 1011.9
20260505210003 12 0 0.0 0.0 0.00 0.00 0.00 75 1011.5
20260505205403 12 0 0.0 0.0 0.00 0.00 0.00 75 1011.8
20260505204503 12 0 0.0 0.0 0.00 0.00 0.00 75 1011.7
20260505203624 12 0 0.0 0.0 0.00 0.00 0.00 75 1011.7
20260505202703 13 0 0.0 0.0 0.00 0.00 0.00 75 1011.8
20260505201803 13 0 0.0 0.0 0.00 0.00 0.00 75 1011.8
20260505200903 13 0 0.0 0.0 0.00 0.00 0.00 75 1011.7
20260505200004 13 0 0.0 0.0 0.00 0.00 0.00 75 1011.8
20260505195403 13 0 0.0 0.0 0.00 0.00 0.00 75 1011.7
20260505194503 13 330 0.0 11.3 0.00 0.00 0.00 74 1011.7
20260505193603 13 328 0.0 11.3 0.00 0.00 0.00 74 1011.7
20260505192703 13 320 0.0 4.8 0.00 0.00 0.00 74 1011.5
20260505191803 13 0 0.0 0.0 0.00 0.00 0.00 74 1011.4
20260505190903 13 0 0.0 0.0 0.00 0.00 0.00 73 1011.5
20260505190003 13 0 0.0 0.0 0.00 0.00 0.00 73 1011.5
20260505185403 13 0 0.0 0.0 0.00 0.00 0.00 73 1011.5
20260505184524 13 0 0.0 0.0 0.00 0.00 0.00 72 1011.4
20260505183603 14 0 0.0 0.0 0.00 0.00 0.00 72 1011.4
20260505182703 14 311 0.0 11.3 0.00 0.00 0.00 71 1011.6
20260505181824 14 324 0.0 11.3 0.00 0.00 0.00 71 1011.5
20260505180903 14 336 0.0 8.0 0.00 0.00 0.00 71 1011.7
20260505180003 14 0 0.0 0.0 0.00 0.00 0.00 70 1011.6
20260505175403 14 0 0.0 0.0 0.00 0.00 0.00 70 1011.8
20260505174503 14 0 0.0 0.0 0.00 0.00 0.00 70 1011.7
20260505173603 14 304 0.0 4.8 0.00 0.00 0.00 69 1011.7
20260505172703 14 0 0.0 0.0 0.00 0.00 0.00 68 1011.8
20260505171803 15 0 0.0 0.0 0.00 0.00 0.00 68 1011.7
20260505170903 14 0 0.0 0.0 0.00 0.00 0.00 69 1011.9
20260505170003 14 312 0.0 3.2 0.00 0.00 0.00 68 1012.1
20260505165403 14 326 0.0 8.0 0.00 0.00 0.00 69 1012.0
20260505164503 14 337 0.0 4.8 0.00 0.00 0.00 69 1011.7
20260505163603 14 308 0.0 8.0 0.00 0.00 0.00 69 1011.9
20260505162703 14 0 0.0 0.0 0.00 0.00 0.00 70 1011.8
20260505161825 14 0 0.0 0.0 0.00 0.00 0.00 69 1011.8
20260505160903 14 0 0.0 0.0 0.00 0.00 0.00 69 1011.9
20260505152724 15 345 0.0 4.8 0.00 0.00 0.00 68 1012.1
20260505151824 15 330 0.0 8.0 0.00 0.00 0.00 67 1012.0
20260505150903 14 18 0.0 11.3 0.00 0.00 0.00 67 1012.1
20260505124503 15 318 0.0 14.5 0.00 0.00 0.00 66 1013.0
20260505123624 15 353 0.0 3.2 0.00 0.00 0.00 66 1013.0
20260505122703 14 348 0.0 8.0 0.00 0.00 0.00 67 1012.9
20260505121803 14 324 0.0 8.0 0.00 0.00 0.00 67 1012.8
20260505120903 14 15 0.0 4.8 0.00 0.00 0.00 68 1012.9
20260505120004 13 329 0.0 4.8 0.00 0.00 0.00 70 1012.8
20260505115424 13 339 0.0 4.8 0.00 0.00 0.00 70 1012.7
20260505114503 14 342 0.0 14.5 0.00 0.00 0.00 69 1012.9
20260505113603 13 344 0.0 11.3 0.00 0.00 0.00 69 1012.7
20260505112703 14 346 0.0 11.3 0.00 0.00 0.00 69 1013.0
20260505111803 14 60 0.0 8.0 0.00 0.00 0.00 67 1013.0
20260505110903 13 348 1.6 16.1 0.00 0.00 0.00 70 1012.7
20260505101803 15 317 4.8 19.3 0.00 0.00 0.00 69 1012.9
20260505100903 16 318 4.8 19.3 0.00 0.00 0.00 65 1012.7
20260505100024 15 354 6.4 22.5 0.00 0.00 0.00 67 1012.5
20260505095403 15 351 6.4 16.1 0.00 0.00 0.00 68 1012.7
20260505094503 14 346 4.8 16.1 0.00 0.00 0.00 69 1012.7
20260505093603 14 321 4.8 14.5 0.00 0.00 0.00 70 1012.7
20260505092724 14 322 4.8 22.5 0.00 0.00 0.00 71 1012.7
20260505091803 14 344 6.4 19.3 0.00 0.00 0.00 70 1012.7
20260505090903 15 330 4.8 19.3 0.00 0.00 0.00 70 1012.6
20260505090003 14 338 4.8 14.5 0.00 0.00 0.00 71 1012.7
20260505085403 13 336 6.4 24.1 0.00 0.00 0.00 73 1013.0
20260505084503 13 334 4.8 16.1 0.00 0.00 0.00 74 1012.9
20260505083603 13 330 3.2 11.3 0.00 0.00 0.00 75 1012.7
20260505082703 13 319 4.8 19.3 0.00 0.00 0.00 74 1012.8
20260505081803 13 339 4.8 16.1 0.00 0.00 0.00 74 1012.7
20260505080903 13 346 4.8 16.1 0.00 0.00 0.00 74 1012.7
20260505080003 13 345 6.4 22.5 0.00 0.00 0.00 75 1012.6
20260505075403 12 341 4.8 16.1 0.00 0.00 0.00 76 1012.7
20260505074503 13 326 4.8 19.3 0.00 0.00 0.00 77 1012.7
20260505073603 13 336 3.2 16.1 0.00 0.00 0.00 76 1012.5
20260505072703 13 327 1.6 9.7 0.00 0.00 0.00 73 1012.5
20260505071803 13 338 3.2 19.3 0.00 0.00 0.00 74 1012.5
20260505070924 12 340 1.6 8.0 0.00 0.00 0.00 78 1012.6
20260505070003 12 5 3.2 14.5 0.00 0.00 0.00 82 1012.6
20260505065403 12 346 3.2 11.3 0.00 0.00 0.00 84 1012.7
20260505064503 11 320 1.6 14.5 0.00 0.00 0.00 86 1012.9
20260505063603 11 321 0.0 3.2 0.00 0.00 0.00 89 1012.9
20260505062703 11 338 0.0 8.0 0.00 0.00 0.00 90 1012.9
20260505061803 10 334 1.6 11.3 0.00 0.00 0.00 91 1012.9
20260505060903 10 353 0.0 14.5 0.00 0.00 0.00 92 1012.9
20260505060003 10 2 0.0 14.5 0.00 0.00 0.00 93 1013.0
20260505055403 10 0 0.0 0.0 0.00 0.00 0.00 93 1013.0
20260505054524 10 0 0.0 0.0 0.00 0.00 0.00 94 1013.0
20260505053603 10 0 0.0 0.0 0.00 0.00 0.00 94 1013.0
20260505052724 10 0 0.0 0.0 0.00 0.00 0.00 94 1013.1